TimePST,TemperatureF,Dew PointF,Humidity,Sea Level PressureIn,VisibilityMPH,Wind Direction,Wind SpeedMPH,Gust SpeedMPH,PrecipitationIn,Events,Conditions,WindDirDegrees,DateUTC
12:53 AM,45.0,28.9,53,30.00,10.0,SE,13.8,-,N/A,,Clear,130,2012-12-21 08:53:00
1:53 AM,46.0,28.9,51,29.99,10.0,SE,11.5,20.7,N/A,,Clear,130,2012-12-21 09:53:00
2:53 AM,44.1,28.0,53,29.98,10.0,SE,8.1,-,N/A,,Clear,140,2012-12-21 10:53:00
3:53 AM,45.0,27.0,49,29.96,10.0,SSE,11.5,-,N/A,,Clear,150,2012-12-21 11:53:00
4:53 AM,46.0,28.9,51,29.95,10.0,SE,11.5,18.4,N/A,,Scattered Clouds,140,2012-12-21 12:53:00
5:53 AM,46.0,30.9,56,29.95,10.0,SE,9.2,-,N/A,,Mostly Cloudy,140,2012-12-21 13:53:00
6:53 AM,46.0,32.0,58,29.96,10.0,SSE,6.9,-,0.00,Rain,Light Rain,150,2012-12-21 14:53:00
7:53 AM,45.0,30.9,58,29.96,10.0,SE,9.2,-,0.00,,Overcast,130,2012-12-21 15:53:00
8:53 AM,46.0,28.9,51,29.96,5.0,SE,8.1,-,0.00,Rain,Light Rain,140,2012-12-21 16:53:00
9:53 AM,43.0,34.0,71,29.97,3.0,SE,6.9,-,0.07,Rain,Rain,140,2012-12-21 17:53:00
10:53 AM,44.1,34.0,68,29.96,7.0,ESE,11.5,-,0.08,Rain,Light Rain,120,2012-12-21 18:53:00
11:53 AM,46.0,35.1,66,29.95,10.0,ESE,13.8,20.7,0.01,Rain,Light Rain,120,2012-12-21 19:53:00
12:53 PM,46.0,37.9,73,29.94,10.0,SE,11.5,-,0.00,Rain,Light Rain,130,2012-12-21 20:53:00
1:53 PM,50.0,35.1,57,29.91,10.0,SE,13.8,18.4,0.00,,Overcast,130,2012-12-21 21:53:00
2:53 PM,52.0,35.1,53,29.92,10.0,SE,12.7,17.3,0.00,,Overcast,130,2012-12-21 22:53:00
3:53 PM,52.0,37.0,57,29.91,10.0,SE,10.4,24.2,0.00,Rain,Light Rain,130,2012-12-21 23:53:00
4:53 PM,55.0,32.0,42,29.88,10.0,SSE,13.8,23.0,0.00,,Overcast,150,2012-12-22 00:53:00
5:53 PM,54.0,34.0,47,29.92,10.0,South,8.1,-,0.00,,Overcast,170,2012-12-22 01:53:00
6:53 PM,52.0,37.9,59,29.94,10.0,SSE,10.4,-,N/A,,Overcast,160,2012-12-22 02:53:00
7:24 PM,48.2,42.8,82,29.95,2.5,SSE,11.5,19.6,0.00,Rain,Rain,150,2012-12-22 03:24:00
7:53 PM,46.9,43.0,86,29.95,2.5,SSE,10.4,17.3,0.10,Rain,Rain,150,2012-12-22 03:53:00
8:04 PM,46.4,42.8,87,29.95,6.0,South,8.1,-,0.02,Rain,Light Rain,170,2012-12-22 04:04:00
8:53 PM,46.9,44.1,90,29.95,4.0,SSW,3.5,-,0.09,Rain,Light Rain,200,2012-12-22 04:53:00
9:53 PM,46.9,44.1,90,29.93,8.0,WSW,6.9,-,0.07,,Overcast,250,2012-12-22 05:53:00
10:53 PM,50.0,43.0,77,29.90,10.0,South,6.9,-,0.01,,Overcast,170,2012-12-22 06:53:00
11:53 PM,52.0,39.9,63,29.88,10.0,SSE,13.8,23.0,0.00,,Overcast,160,2012-12-22 07:53:00